SEH2DR LGKO-LGSR

Flight info

Callsign SEH2DR
Flight time 0h 30m
Altitude 12000
Route GILOS DCT ASTIS
Aircraft A21N/M-SDE2E3FGHIRWXY/LB1

Departure

Time 2026-04-28 17:30
Airport Kos International Airport "Ippokratis" (LGKO)

Arrival

Time 2026-04-28 18:01
Airport Santorini International Airport (LGSR)
Time Latitude Longitude Altitude Speed Heading
2026-04-28 16:52 36.80180 27.08901 424 ft 0 kts 58°
2026-04-28 16:54 36.80180 27.08900 424 ft 0 kts 58°
2026-04-28 17:01 36.80179 27.08900 424 ft 0 kts 58°
2026-04-28 17:02 36.80179 27.08899 424 ft 0 kts 58°
2026-04-28 17:11 36.80179 27.08898 424 ft 0 kts 58°
2026-04-28 17:19 36.80174 27.08889 414 ft 4 kts 59°
2026-04-28 17:20 36.80162 27.08859 412 ft 4 kts 71°
2026-04-28 17:20 36.80157 27.08827 412 ft 4 kts 96°
2026-04-28 17:20 36.80166 27.08802 412 ft 2 kts 146°
2026-04-28 17:20 36.80167 27.08800 412 ft 1 kts 148°
2026-04-28 17:23 36.80168 27.08800 412 ft 0 kts 148°
2026-04-28 17:23 36.80161 27.08805 412 ft 3 kts 148°
2026-04-28 17:24 36.80134 27.08826 417 ft 6 kts 147°
2026-04-28 17:24 36.80090 27.08861 417 ft 9 kts 147°
2026-04-28 17:24 36.80031 27.08908 415 ft 11 kts 147°
2026-04-28 17:24 36.79960 27.08964 419 ft 13 kts 147°
2026-04-28 17:25 36.79908 27.08977 414 ft 6 kts 180°
2026-04-28 17:25 36.79808 27.08982 418 ft 8 kts 174°
2026-04-28 17:25 36.79746 27.08989 422 ft 10 kts 175°
2026-04-28 17:26 36.79667 27.08995 419 ft 13 kts 177°
2026-04-28 17:26 36.79573 27.09025 420 ft 15 kts 149°
2026-04-28 17:26 36.79480 27.09096 419 ft 17 kts 148°
2026-04-28 17:26 36.79376 27.09176 417 ft 18 kts 148°
2026-04-28 17:27 36.79266 27.09260 414 ft 19 kts 148°
2026-04-28 17:27 36.79152 27.09352 409 ft 20 kts 147°
2026-04-28 17:27 36.79082 27.09409 405 ft 21 kts 147°
2026-04-28 17:27 36.78957 27.09511 402 ft 22 kts 147°
2026-04-28 17:28 36.78821 27.09613 398 ft 23 kts 150°
2026-04-28 17:28 36.78584 27.09764 395 ft 10 kts 182°
2026-04-28 17:28 36.78555 27.09805 393 ft 2 kts 33°
2026-04-28 17:29 36.78580 27.09798 394 ft 6 kts 333°
2026-04-28 17:29 36.78587 27.09792 395 ft 0 kts 326°
2026-04-28 17:30 36.78614 27.09770 396 ft 25 kts 326°
2026-04-28 17:30 36.79701 27.08927 469 ft 140 kts 327°
2026-04-28 17:30 36.80492 27.08246 1027 ft 135 kts 326°
2026-04-28 17:31 36.81222 27.07538 1630 ft 130 kts 323°
2026-04-28 17:31 36.82576 27.06181 2809 ft 126 kts 328°
2026-04-28 17:32 36.84144 27.04914 3910 ft 143 kts 327°
2026-04-28 17:32 36.84975 27.04163 4451 ft 150 kts 327°
2026-04-28 17:32 36.85929 27.03436 4892 ft 171 kts 332°
2026-04-28 17:32 36.87022 27.02727 5593 ft 182 kts 334°
2026-04-28 17:33 36.88222 27.02052 6289 ft 195 kts 337°
2026-04-28 17:33 36.89490 27.01337 6995 ft 203 kts 333°
2026-04-28 17:33 36.90740 27.00462 7777 ft 209 kts 328°
2026-04-28 17:33 36.91594 26.99840 8215 ft 219 kts 330°
2026-04-28 17:34 36.93469 26.98693 9249 ft 231 kts 334°
2026-04-28 17:34 36.95001 26.97978 10033 ft 240 kts 343°
2026-04-28 17:34 36.96680 26.97635 10735 ft 249 kts 354°
2026-04-28 17:34 36.98439 26.97791 11455 ft 258 kts
2026-04-28 17:35 37.00140 26.98716 11807 ft 281 kts 37°
2026-04-28 17:35 37.01254 27.00723 12090 ft 294 kts 71°
2026-04-28 17:35 37.01341 27.03248 12188 ft 296 kts 105°
2026-04-28 17:35 37.00337 27.05422 12256 ft 292 kts 136°
2026-04-28 17:36 36.98689 27.06860 11985 ft 289 kts 159°
2026-04-28 17:36 36.96776 27.07570 11772 ft 286 kts 173°
2026-04-28 17:36 36.94812 27.08097 11777 ft 305 kts 166°
2026-04-28 17:36 36.92628 27.08562 11897 ft 333 kts 179°
2026-04-28 17:37 36.90206 27.08628 11975 ft 362 kts 181°
2026-04-28 17:37 36.87628 27.08684 11994 ft 380 kts 180°
2026-04-28 17:37 36.84964 27.08792 11984 ft 382 kts 180°
2026-04-28 17:37 36.82292 27.08928 11974 ft 382 kts 179°
2026-04-28 17:38 36.79671 27.08895 11960 ft 380 kts 188°
2026-04-28 17:38 36.77142 27.08006 11958 ft 376 kts 206°
2026-04-28 17:38 36.74796 27.06548 11968 ft 376 kts 209°
2026-04-28 17:38 36.72479 27.05030 11967 ft 376 kts 209°
2026-04-28 17:39 36.70176 27.03541 11965 ft 376 kts 209°
2026-04-28 17:39 36.67834 27.02049 11967 ft 384 kts 209°
2026-04-28 17:39 36.62872 26.98908 11973 ft 407 kts 209°
2026-04-28 17:40 36.60339 26.97312 11969 ft 409 kts 208°
2026-04-28 17:40 36.57788 26.95706 11965 ft 409 kts 208°
2026-04-28 17:40 36.55246 26.94102 11971 ft 409 kts 208°
2026-04-28 17:40 36.52770 26.92363 11964 ft 408 kts 217°
2026-04-28 17:41 36.50744 26.89920 11967 ft 406 kts 233°
2026-04-28 17:41 36.49415 26.86901 11974 ft 402 kts 251°
2026-04-28 17:41 36.48863 26.83528 11976 ft 396 kts 268°
2026-04-28 17:41 36.49153 26.80125 11980 ft 396 kts 283°
2026-04-28 17:42 36.49886 26.76797 11985 ft 396 kts 285°
2026-04-28 17:42 36.50331 26.74596 11982 ft 399 kts 283°
2026-04-28 17:42 36.51052 26.70098 11978 ft 399 kts 280°
2026-04-28 17:42 36.51498 26.66686 11977 ft 395 kts 279°
2026-04-28 17:43 36.51911 26.63277 11978 ft 398 kts 278°
2026-04-28 17:43 36.52305 26.59929 11983 ft 394 kts 278°
2026-04-28 17:43 36.52701 26.56518 11986 ft 399 kts 278°
2026-04-28 17:43 36.53090 26.53121 11984 ft 397 kts 278°
2026-04-28 17:44 36.53489 26.49687 11990 ft 400 kts 279°
2026-04-28 17:44 36.53877 26.46321 11993 ft 395 kts 279°
2026-04-28 17:44 36.54270 26.42919 11991 ft 395 kts 279°
2026-04-28 17:44 36.54664 26.39523 11994 ft 396 kts 279°
2026-04-28 17:45 36.55056 26.36119 11996 ft 400 kts 279°
2026-04-28 17:45 36.55444 26.32719 11996 ft 397 kts 279°
2026-04-28 17:45 36.55837 26.29289 11996 ft 401 kts 278°
2026-04-28 17:45 36.56217 26.25937 11780 ft 389 kts 279°
2026-04-28 17:46 36.56602 26.22557 10965 ft 393 kts 279°
2026-04-28 17:46 36.56971 26.19220 10402 ft 390 kts 279°
2026-04-28 17:46 36.57334 26.15874 10137 ft 390 kts 279°
2026-04-28 17:46 36.57690 26.12571 10044 ft 388 kts 279°
2026-04-28 17:47 36.57781 26.11729 10030 ft 390 kts 279°
2026-04-28 17:47 36.57818 26.11385 10029 ft 390 kts 279°
2026-04-28 17:47 36.57973 26.09944 10014 ft 389 kts 279°
2026-04-28 17:48 36.57980 26.09875 10015 ft 389 kts 279°
2026-04-28 17:48 36.58336 26.06562 10015 ft 388 kts 279°
2026-04-28 17:48 36.58693 26.03228 10008 ft 390 kts 279°
2026-04-28 17:48 36.59048 25.99895 10012 ft 386 kts 279°
2026-04-28 17:49 36.59400 25.96620 9888 ft 375 kts 279°
2026-04-28 17:49 36.59741 25.93437 8983 ft 375 kts 279°
2026-04-28 17:49 36.60084 25.90200 7982 ft 379 kts 279°
2026-04-28 17:49 36.60426 25.86929 7226 ft 377 kts 279°
2026-04-28 17:50 36.60437 25.83677 6692 ft 376 kts 264°
2026-04-28 17:50 36.59654 25.80653 6336 ft 367 kts 245°
2026-04-28 17:50 36.58212 25.78094 6082 ft 355 kts 232°
2026-04-28 17:50 36.56610 25.75825 5881 ft 341 kts 231°
2026-04-28 17:51 36.55097 25.73628 5701 ft 327 kts 232°
2026-04-28 17:51 36.53670 25.71480 5550 ft 314 kts 233°
2026-04-28 17:51 36.52338 25.69431 5406 ft 302 kts 234°
2026-04-28 17:51 36.51050 25.67435 5272 ft 290 kts 232°
2026-04-28 17:52 36.49457 25.65967 5065 ft 286 kts 204°
2026-04-28 17:52 36.47491 25.65600 4646 ft 288 kts 175°
2026-04-28 17:52 36.43945 25.67666 3850 ft 286 kts 143°
2026-04-28 17:53 36.42128 25.68617 3602 ft 280 kts 168°
2026-04-28 17:53 36.40225 25.68911 3467 ft 270 kts 178°
2026-04-28 17:53 36.38394 25.68894 3438 ft 255 kts 184°
2026-04-28 17:53 36.36690 25.68652 3285 ft 246 kts 190°
2026-04-28 17:54 36.35053 25.68207 3103 ft 233 kts 197°
2026-04-28 17:54 36.33578 25.67599 3032 ft 215 kts 204°
2026-04-28 17:54 36.32259 25.66878 2962 ft 198 kts 209°
2026-04-28 17:54 36.31590 25.66449 2948 ft 188 kts 215°
2026-04-28 17:55 36.31444 25.66351 2950 ft 187 kts 213°
2026-04-28 17:55 36.31021 25.66062 2965 ft 196 kts 213°
2026-04-28 17:55 36.29887 25.65246 2868 ft 181 kts 214°
2026-04-28 17:55 36.28905 25.64346 2840 ft 172 kts 230°
2026-04-28 17:56 36.28055 25.63294 2926 ft 175 kts 230°
2026-04-28 17:56 36.27213 25.62203 2970 ft 174 kts 233°
2026-04-28 17:56 36.26785 25.60917 2964 ft 160 kts 281°
2026-04-28 17:56 36.27098 25.59643 2984 ft 153 kts 294°
2026-04-28 17:57 36.27349 25.58305 3005 ft 163 kts 287°
2026-04-28 17:57 36.27728 25.57018 2981 ft 157 kts 316°
2026-04-28 17:57 36.28632 25.56265 3009 ft 158 kts 335°
2026-04-28 17:57 36.29596 25.55609 3006 ft 158 kts 333°
2026-04-28 17:58 36.30486 25.54947 2862 ft 145 kts 330°
2026-04-28 17:58 36.31255 25.54142 2636 ft 144 kts 322°
2026-04-28 17:58 36.31980 25.53307 2373 ft 143 kts 322°
2026-04-28 17:58 36.32738 25.52436 1826 ft 156 kts 322°
2026-04-28 17:59 36.33578 25.51495 1331 ft 164 kts 321°
2026-04-28 17:59 36.34441 25.50598 1013 ft 157 kts 327°
2026-04-28 17:59 36.35355 25.50057 915 ft 138 kts 342°
2026-04-28 17:59 36.36246 25.49711 755 ft 127 kts 340°
2026-04-28 18:00 36.37048 25.49341 531 ft 122 kts 332°
2026-04-28 18:00 36.37831 25.48949 328 ft 121 kts 335°
2026-04-28 18:00 36.38614 25.48543 139 ft 123 kts 334°
2026-04-28 18:00 36.39412 25.48156 74 ft 116 kts 337°
2026-04-28 18:01 36.39929 25.47909 89 ft 37 kts 339°
2026-04-28 18:01 36.40156 25.47801 94 ft 36 kts 339°
2026-04-28 18:01 36.40315 25.47718 94 ft 10 kts 304°
2026-04-28 18:01 36.40310 25.47659 97 ft 8 kts 251°
2026-04-28 18:02 36.40288 25.47584 95 ft 10 kts 250°
2026-04-28 18:02 36.40265 25.47517 98 ft 8 kts 245°
2026-04-28 18:02 36.40297 25.47468 96 ft 3 kts 337°
2026-04-28 18:02 36.40328 25.47451 98 ft 6 kts 337°
2026-04-28 18:03 36.40368 25.47434 97 ft 6 kts 341°
2026-04-28 18:03 36.40392 25.47414 95 ft 4 kts 282°
2026-04-28 18:03 36.40386 25.47378 96 ft 1 kts 250°
2026-04-28 18:03 36.40383 25.47367 96 ft 0 kts 250°
2026-04-28 18:04 36.40383 25.47368 96 ft 0 kts 250°
2026-04-28 18:13 36.40383 25.47369 96 ft 0 kts 250°
2026-04-28 18:15 36.40384 25.47369 96 ft 0 kts 250°